Content
SEND FEEDBACK

Daily
Averages
Monthly
Summary
United States of America

UNIVERSITY PARK, IOWA


Home > North America > United States > Iowa
Elevation: 789 feet     Latitude: 41 19N     Longitude: 092 39W

WEATHER
 
SELECT A DAY
Number of Records: 222,864;   Date Range: 5/3/05 - 10/24/14
 
SHARE

PRINT THIS DATA

[ ← Previous Day ]
WEATHER ALMANAC - JANUARY 31, 2013
[ Next Day → ]
[ °C ]   °F
Weather ElementAverageHighLow
Temperature8.7 °F20.1 °F (12:35 am)2.7 °F (11:35 pm)
Dewpoint2 °F15.1 °F (12:35 am)-5.3 °F (11:35 pm)
Humidity74.3 %83 % (5:35 am)68 % (10:35 am)
Barometer30.08 in30.35 in (11:35 pm)29.85 in (12:35 am)
Wind Speed20.5 mph31.1 mph (4:35 pm)
Wind Gust38 mph (3:55 pm)
Weather ElementAverage
Visibility6.9 mi
Wind DirectionWNW (299.7 °)

Weather ElementTotal
Precipitation---
Heating Degree Days53.6 (Base 65)
Averaged from 69 records on January 31, 2013
WEATHER CONDITIONS BREAKOUT
WIND DIRECTION BREAKOUT
WEATHER BY HOUR - JANUARY 31, 2013
[ °C ]   °F
Local TimeTemperatureDewpointHumidityBarometerVisibilityWind DirectionWind SpeedGust SpeedPrecipitationEventsConditions
12:35 AM20.1 °F15.1 °F81 %29.85 in7.0 miWest (280°)23.0 mphSnowLight Snow
12:55 AM19.0 °F13.8 °F80 %29.85 in4.0 miWNW (290°)21.9 mph27.6 mphSnowLight Snow
1:15 AM17.4 °F12.4 °F81 %29.86 in7.0 miNW (310°)13.8 mphSnowLight Snow
1:35 AM15.8 °F11.3 °F82 %29.87 in10.0 miWNW (300°)21.9 mph25.3 mphSnowLight Snow
1:55 AM15.4 °F9.5 °F77 %29.87 in10.0 miWNW (290°)11.5 mphScattered Clouds
2:15 AM14.4 °F8.8 °F79 %29.88 in10.0 miWest (280°)13.8 mphClear
2:35 AM13.8 °F8.4 °F79 %29.88 in10.0 miWest (280°)13.8 mphClear
2:55 AM13.5 °F8.2 °F80 %29.88 in10.0 miWest (280°)13.8 mphClear
3:15 AM12.7 °F7.7 °F80 %29.88 in10.0 miWest (280°)11.5 mphClear
3:35 AM12.4 °F7.5 °F81 %29.88 in10.0 miWest (280°)13.8 mphClear
3:55 AM12.0 °F6.8 °F80 %29.88 in10.0 miWest (280°)15.0 mphClear
4:15 AM11.7 °F6.8 °F81 %29.88 in10.0 miWest (280°)16.1 mphClear
4:35 AM11.1 °F6.3 °F81 %29.89 in10.0 miWNW (290°)13.8 mphClear
4:55 AM10.4 °F5.9 °F82 %29.89 in10.0 miWNW (290°)12.7 mphClear
5:15 AM10.0 °F5.5 °F82 %29.90 in7.0 miWNW (290°)11.5 mphSnowLight Snow
5:35 AM10.2 °F5.9 °F83 %29.90 in4.0 miWNW (300°)12.7 mphSnowLight Snow
5:55 AM10.4 °F5.5 °F81 %29.91 in10.0 miNW (310°)15.0 mphMostly Cloudy
6:15 AM10.0 °F4.6 °F79 %29.91 in10.0 miWNW (300°)19.6 mphMostly Cloudy
6:35 AM9.5 °F4.1 °F79 %29.93 in10.0 miWNW (300°)17.3 mphMostly Cloudy
6:55 AM9.1 °F3.2 °F77 %29.94 in10.0 miNW (310°)20.7 mph28.8 mphMostly Cloudy
7:15 AM8.4 °F3.0 °F79 %29.94 in5.0 miNW (310°)20.7 mph24.2 mphHaze
7:35 AM7.7 °F1.8 °F77 %29.96 in7.0 miNW (310°)20.7 mph26.5 mphMostly Cloudy
7:55 AM7.5 °F1.0 °F75 %29.97 in7.0 miNW (310°)20.7 mph28.8 mphOvercast
8:15 AM7.5 °F0.9 °F74 %29.98 in7.0 miWNW (300°)21.9 mph28.8 mphOvercast
8:35 AM7.5 °F0.5 °F73 %29.99 in7.0 miNW (310°)20.7 mph27.6 mphOvercast
8:55 AM7.5 °F0.0 °F71 %30.00 in7.0 miNW (320°)18.4 mph25.3 mphOvercast
9:15 AM7.7 °F0.1 °F71 %30.01 in10.0 miNW (310°)18.4 mph24.2 mphOvercast
9:35 AM7.7 °F-0.2 °F70 %30.02 in5.0 miNW (310°)21.9 mph32.2 mphHaze
9:55 AM7.5 °F-0.6 °F70 %30.03 in7.0 miNW (310°)20.7 mph26.5 mphOvercast
10:15 AM8.1 °F0.0 °F70 %30.05 in7.0 miNW (310°)23.0 mph28.8 mphOvercast
10:35 AM8.6 °F0.1 °F68 %30.07 in10.0 miWNW (300°)19.6 mph27.6 mphOvercast
10:55 AM8.6 °F0.5 °F70 %30.08 in7.0 miWNW (300°)24.2 mph28.8 mphMostly Cloudy
11:15 AM9.0 °F0.7 °F69 %30.09 in10.0 miWNW (300°)23.0 mph27.6 mphMostly Cloudy
11:35 AM8.8 °F0.7 °F70 %30.09 in10.0 miWNW (300°)25.3 mph28.8 mphOvercast
11:55 AM9.1 °F1.2 °F70 %30.10 in10.0 miWNW (300°)26.5 mph31.1 mphOvercast
12:15 PM9.1 °F1.9 °F73 %30.09 in2.0 miNW (310°)24.2 mph32.2 mphHaze
12:35 PM9.3 °F2.3 °F73 %30.10 in1.8 miWNW (300°)25.3 mph33.4 mphHaze
12:55 PM9.5 °F2.5 °F73 %30.10 in2.5 miWNW (300°)24.2 mph28.8 mphHaze
1:15 PM9.7 °F1.9 °F71 %30.10 in1.8 miNW (310°)24.2 mph32.2 mphHaze
1:35 PM9.9 °F2.8 °F73 %30.11 in2.0 miNW (310°)21.9 mph31.1 mphHaze
1:55 PM9.5 °F1.8 °F71 %30.11 in1.8 miWNW (300°)27.6 mph32.2 mphHaze
2:15 PM9.7 °F1.8 °F70 %30.12 in2.0 miNW (310°)27.6 mph34.5 mphHaze
2:35 PM9.9 °F2.5 °F72 %30.13 in1.2 miNW (310°)28.8 mph35.7 mphHaze
2:55 PM9.5 °F2.7 °F74 %30.15 in1.0 miNW (310°)25.3 mph33.4 mphHaze
3:15 PM9.1 °F1.2 °F70 %30.15 in1.5 miNW (310°)25.3 mph35.7 mphHaze
3:35 PM8.4 °F2.8 °F78 %30.17 in0.8 miNW (310°)21.9 mph29.9 mphHaze
3:55 PM8.6 °F1.8 °F74 %30.17 in1.2 miWNW (300°)24.2 mph38.0 mphHaze
4:15 PM7.2 °F1.0 °F76 %30.18 in1.5 miWNW (300°)27.6 mph32.2 mphHaze
4:35 PM6.8 °F0.0 °F74 %30.19 in1.2 miWNW (300°)31.1 mph36.8 mphHaze
4:55 PM6.8 °F0.3 °F75 %30.20 in2.0 miNW (310°)27.6 mph34.5 mphHaze
5:15 PM5.7 °F-1.7 °F72 %30.22 in2.0 miWNW (300°)21.9 mph35.7 mphHaze
5:35 PM5.9 °F-0.4 °F75 %30.23 in4.0 miWNW (300°)23.0 mph29.9 mphHaze
5:55 PM5.9 °F-0.6 °F75 %30.23 in7.0 miWNW (300°)20.7 mphMostly Cloudy
6:15 PM5.5 °F-1.3 °F73 %30.24 in5.0 miWNW (300°)23.0 mph31.1 mphHaze
6:35 PM5.5 °F-1.3 °F73 %30.25 in7.0 miWNW (290°)23.0 mph29.9 mphMostly Cloudy
6:55 PM5.5 °F-0.8 °F75 %30.25 in7.0 miWNW (290°)20.7 mph31.1 mphMostly Cloudy
7:15 PM5.5 °F-1.3 °F73 %30.26 in7.0 miWNW (300°)20.7 mph32.2 mphMostly Cloudy
7:35 PM5.4 °F-2.2 °F71 %30.27 in10.0 miWNW (300°)20.7 mph28.8 mphClear
7:55 PM5.0 °F-2.4 °F72 %30.27 in10.0 miWNW (290°)19.6 mph24.2 mphScattered Clouds
8:15 PM5.0 °F-3.1 °F69 %30.28 in10.0 miWNW (300°)19.6 mphClear
8:35 PM4.8 °F-3.5 °F69 %30.29 in10.0 miWNW (300°)18.4 mph25.3 mphClear
9:15 PM4.3 °F-4.0 °F69 %30.30 in10.0 miWNW (300°)20.7 mphClear
9:35 PM4.1 °F-4.0 °F69 %30.31 in10.0 miWNW (300°)20.7 mph25.3 mphClear
9:55 PM4.1 °F-4.2 °F69 %30.31 in10.0 miWNW (300°)21.9 mph27.6 mphClear
10:15 PM3.7 °F-4.5 °F69 %30.32 in10.0 miWNW (300°)18.4 mph26.5 mphClear
10:35 PM3.6 °F-4.9 °F68 %30.33 in10.0 miWNW (300°)20.7 mph27.6 mphClear
10:55 PM3.2 °F-4.9 °F69 %30.33 in10.0 miWNW (300°)23.0 mph28.8 mphClear
11:15 PM3.0 °F-5.1 °F69 %30.34 in10.0 miWNW (300°)17.3 mph25.3 mphClear
11:35 PM2.7 °F-5.3 °F70 %30.35 in10.0 miWNW (300°)16.1 mphClear
Hourly data recorded from KOOA, located miles away from University Park, Iowa







STORIES FROM OUR PARTNERS